Météo Nord-Pas-de-Calais   La météo au plus près de chez vous

Station météorologique

Observations météo à Etoile (26124)

26124001 145 m Dernier relevé à 12:54
29.7°C
Humidité 48 % Vent 18.4 km/h

Journée consultée

Dimanche 6 Septembre 2026

Synthèse de la journée

Périodes de référence en UTC

Température maximale

29.8°C

à 12:48

06h 06h

Température minimale

21.4°C

à 06:00

18h 18h

Rafale maximale

32 km/h

à 08:30

00h 00h

Précipitations

0 mm

Cumul quotidien

06h 06h

Ensoleillement

5h 24 mins

Durée quotidienne

00h 00h

Graphiques de la journée

Heure locale Réduire

Données détaillées

Relevés météo

Pas de 6 minutes Afficher les relevés infra-horaires
Relevés météo détaillés à Etoile pour le Dimanche 6 Septembre 2026
Heure Température °C Point de rosée °C Humidité % Vent moyen (raf.), km/h Précipitations mm Température à 10 cm °C Température à 20 cm °C Ensoleillement min Rayonnement global W/m²
12:54 29.7 °C 15.8 °C 43 % 17 km/h (27 km/h) 0 mm0 mm 23.6 °C 23.5 °C 6 min 269.9 W/m²
12:48 29.8 °C 15.9 °C 43 % 17 km/h (28 km/h) 0 mm0 mm 23.6 °C 23.5 °C 6 min 269.7 W/m²
12:42 29.2 °C 15.7 °C 44 % 18 km/h (28 km/h) 0 mm0 mm 23.6 °C 23.5 °C 6 min 269.3 W/m²
12:36 29.6 °C 16.4 °C 45 % 17 km/h (28 km/h) 0 mm0 mm 23.6 °C 23.5 °C 6 min 267.4 W/m²
12:30 29.2 °C 16 °C 45 % 17 km/h (26 km/h) 0 mm0 mm 23.6 °C 23.5 °C 6 min 266 W/m²
12:24 29.3 °C 16.1 °C 45 % 17 km/h (28 km/h) 0 mm0 mm 23.5 °C 23.5 °C 6 min 264 W/m²
12:18 29.1 °C 16 °C 45 % 18 km/h (29 km/h) 0 mm0 mm 23.5 °C 23.5 °C 6 min 262.7 W/m²
12:12 28.9 °C 16.1 °C 46 % 19 km/h (29 km/h) 0 mm0 mm 23.5 °C 23.5 °C 6 min 259.8 W/m²
12:06 28.4 °C 16 °C 47 % 21 km/h (29 km/h) 0 mm0 mm 23.5 °C 23.5 °C 6 min 257.1 W/m²
12:00 28.3 °C 16.2 °C 48 % 21 km/h (30 km/h) 0 mm0 mm 23.5 °C 23.5 °C 6 min 253.7 W/m²
11:54 28.4 °C 16.3 °C 48 % 18 km/h (27 km/h) 0 mm0 mm 23.5 °C 23.5 °C 6 min 250.4 W/m²
11:48 27.8 °C 16.4 °C 50 % 19 km/h (29 km/h) 0 mm0 mm 23.5 °C 23.6 °C 6 min 247.5 W/m²
11:42 27.7 °C 16 °C 49 % 19 km/h (29 km/h) 0 mm0 mm 23.5 °C 23.5 °C 6 min 244.6 W/m²
11:36 27.5 °C 16.1 °C 50 % 19 km/h (27 km/h) 0 mm0 mm 23.5 °C 23.6 °C 6 min 241.4 W/m²
11:30 27.3 °C 16.3 °C 51 % 18 km/h (25 km/h) 0 mm0 mm 23.5 °C 23.6 °C 6 min 238.1 W/m²
11:24 27.2 °C 16.5 °C 52 % 18 km/h (25 km/h) 0 mm0 mm 23.5 °C 23.6 °C 6 min 234.2 W/m²
11:18 26.9 °C 16.2 °C 52 % 18 km/h (26 km/h) 0 mm0 mm 23.5 °C 23.6 °C 6 min 230.8 W/m²
11:12 26.8 °C 16.4 °C 53 % 18 km/h (26 km/h) 0 mm0 mm 23.5 °C 23.6 °C 6 min 226.6 W/m²
11:06 26.4 °C 16.3 °C 54 % 19 km/h (26 km/h) 0 mm0 mm 23.5 °C 23.6 °C 6 min 222.8 W/m²
11:00 26.2 °C 16.2 °C 54 % 18 km/h (25 km/h) 0 mm0 mm 23.5 °C 23.6 °C 6 min 218.5 W/m²
10:54 26 °C 16 °C 54 % 19 km/h (26 km/h) 0 mm0 mm 23.5 °C 23.6 °C 6 min 214.1 W/m²
10:48 26 °C 16 °C 54 % 21 km/h (30 km/h) 0 mm0 mm 23.5 °C 23.6 °C 6 min 210 W/m²
10:42 25.7 °C 15.7 °C 54 % 22 km/h (30 km/h) 0 mm0 mm 23.5 °C 23.6 °C 6 min 205.5 W/m²
10:36 25.5 °C 16.1 °C 56 % 23 km/h (32 km/h) 0 mm0 mm 23.5 °C 23.6 °C 6 min 201.2 W/m²
10:30 25.5 °C 15.8 °C 55 % 18 km/h (31 km/h) 0 mm0 mm 23.5 °C 23.6 °C 6 min 195.8 W/m²
10:24 25.5 °C 16.4 °C 57 % 18 km/h (30 km/h) 0 mm0 mm 23.5 °C 23.6 °C 6 min 190.4 W/m²
10:18 25.1 °C 15.7 °C 56 % 21 km/h (32 km/h) 0 mm0 mm 23.5 °C 23.6 °C 6 min 185.2 W/m²
10:12 25.1 °C 16 °C 57 % 22 km/h (32 km/h) 0 mm0 mm 23.5 °C 23.6 °C 6 min 180 W/m²
10:06 24.8 °C 15.7 °C 57 % 21 km/h (32 km/h) 0 mm0 mm 23.5 °C 23.6 °C 6 min 174.6 W/m²
10:00 24.8 °C 16 °C 58 % 21 km/h (31 km/h) 0 mm0 mm 23.5 °C 23.6 °C 6 min 169.3 W/m²
09:54 24.3 °C 15.5 °C 58 % 23 km/h (31 km/h) 0 mm0 mm 23.5 °C 23.6 °C 6 min 163.2 W/m²
09:48 24.2 °C 15.7 °C 59 % 24 km/h (32 km/h) 0 mm0 mm 23.6 °C 23.6 °C 6 min 157.7 W/m²
09:42 24.2 °C 15.7 °C 59 % 23 km/h (32 km/h) 0 mm0 mm 23.6 °C 23.7 °C 6 min 151.5 W/m²
09:36 24 °C 15.5 °C 59 % 21 km/h (31 km/h) 0 mm0 mm 23.6 °C 23.7 °C 6 min 145.3 W/m²
09:30 24 °C 15.5 °C 59 % 19 km/h (31 km/h) 0 mm0 mm 23.6 °C 23.7 °C 6 min 138.2 W/m²
09:24 23.7 °C 15.7 °C 61 % 19 km/h (30 km/h) 0 mm0 mm 23.6 °C 23.7 °C 6 min 131.9 W/m²
09:18 23.6 °C 15.6 °C 61 % 18 km/h (27 km/h) 0 mm0 mm 23.6 °C 23.7 °C 6 min 126 W/m²
09:12 23.5 °C 15.8 °C 62 % 18 km/h (27 km/h) 0 mm0 mm 23.6 °C 23.7 °C 6 min 118.8 W/m²
09:06 23.3 °C 15.9 °C 63 % 18 km/h (28 km/h) 0 mm0 mm 23.6 °C 23.7 °C 6 min 112.1 W/m²
09:00 23 °C 15.8 °C 64 % 20 km/h (28 km/h) 0 mm0 mm 23.6 °C 23.7 °C 6 min 104.5 W/m²
08:54 23 °C 15.8 °C 64 % 20 km/h (28 km/h) 0 mm0 mm 23.6 °C 23.7 °C 6 min 98.2 W/m²
08:48 22.9 °C 15.7 °C 64 % 18 km/h (28 km/h) 0 mm0 mm 23.6 °C 23.7 °C 6 min 90.9 W/m²
08:42 22.8 °C 15.9 °C 65 % 18 km/h (28 km/h) 0 mm0 mm 23.6 °C 23.7 °C 6 min 85.1 W/m²
08:36 22.6 °C 15.7 °C 65 % 20 km/h (32 km/h) 0 mm0 mm 23.7 °C 23.7 °C 6 min 77.8 W/m²
08:30 22.5 °C 15.6 °C 65 % 22 km/h (32 km/h) 0 mm0 mm 23.7 °C 23.7 °C 6 min 70.3 W/m²
08:24 22.4 °C 15.7 °C 66 % 19 km/h (28 km/h) 0 mm0 mm 23.7 °C 23.7 °C 6 min 65 W/m²
08:18 22.3 °C 15.6 °C 66 % 18 km/h (29 km/h) 0 mm0 mm 23.7 °C 23.7 °C 6 min 54.8 W/m²
08:12 22.2 °C 15.8 °C 67 % 20 km/h (31 km/h) 0 mm0 mm 23.7 °C 23.7 °C 6 min 50 W/m²
08:06 22.1 °C 15.7 °C 67 % 22 km/h (30 km/h) 0 mm0 mm 23.7 °C 23.7 °C 6 min 44.1 W/m²
08:00 22 °C 15.6 °C 67 % 22 km/h (30 km/h) 0 mm0 mm 23.7 °C 23.7 °C 6 min 39.2 W/m²
07:54 22 °C 15.6 °C 67 % 21 km/h (29 km/h) 0 mm0 mm 23.7 °C 23.8 °C 6 min 33.9 W/m²
07:48 21.9 °C 15.5 °C 67 % 20 km/h (29 km/h) 0 mm0 mm 23.7 °C 23.8 °C 6 min 30 W/m²
07:42 21.9 °C 15.7 °C 68 % 20 km/h (31 km/h) 0 mm0 mm 23.7 °C 23.8 °C 6 min 23.4 W/m²
07:36 21.7 °C 15.5 °C 68 % 20 km/h (30 km/h) 0 mm0 mm 23.7 °C 23.8 °C 6 min 11.7 W/m²
07:30 21.8 °C 15.6 °C 68 % 21 km/h (30 km/h) 0 mm0 mm 23.8 °C 23.8 °C 0 min 6.7 W/m²
07:24 21.7 °C 15.8 °C 69 % 20 km/h (31 km/h) 0 mm0 mm 23.8 °C 23.8 °C 0 min 4.8 W/m²
07:18 21.7 °C 15.8 °C 69 % 19 km/h (31 km/h) 0 mm0 mm 23.8 °C 23.8 °C 0 min 0.5 W/m²
07:12 21.6 °C 15.7 °C 69 % 19 km/h (28 km/h) 0 mm0 mm 23.8 °C 23.8 °C 0 min 0 W/m²
07:06 21.6 °C 15.9 °C 70 % 18 km/h (28 km/h) 0 mm0 mm 23.8 °C 23.8 °C 0 min 0 W/m²
07:00 21.6 °C 15.9 °C 70 % 17 km/h (27 km/h) 0 mm0 mm 23.8 °C 23.8 °C 0 min 0 W/m²
06:54 21.6 °C 15.9 °C 70 % 16 km/h (27 km/h) 0 mm0 mm 23.8 °C 23.8 °C 0 min 0 W/m²
06:48 21.6 °C 15.9 °C 70 % 16 km/h (23 km/h) 0 mm0 mm 23.8 °C 23.8 °C 0 min 0 W/m²
06:42 21.6 °C 15.9 °C 70 % 15 km/h (25 km/h) 0 mm0 mm 23.8 °C 23.8 °C 0 min 0 W/m²
06:36 21.6 °C 15.9 °C 70 % 16 km/h (25 km/h) 0 mm0 mm 23.9 °C 23.8 °C 0 min 0 W/m²
06:30 21.6 °C 15.9 °C 70 % 17 km/h (26 km/h) 0 mm0 mm 23.9 °C 23.8 °C 0 min 0 W/m²
06:24 21.6 °C 16.1 °C 71 % 17 km/h (26 km/h) 0 mm0 mm 23.9 °C 23.8 °C 0 min 0 W/m²
06:18 21.5 °C 16 °C 71 % 17 km/h (23 km/h) 0 mm0 mm 23.9 °C 23.8 °C 0 min 0 W/m²
06:12 21.5 °C 16 °C 71 % 16 km/h (23 km/h) 0 mm0 mm 23.9 °C 23.8 °C 0 min 0 W/m²
06:06 21.5 °C 16 °C 71 % 15 km/h (23 km/h) 0 mm0 mm 23.9 °C 23.9 °C 0 min 0 W/m²
06:00 21.4 °C 16.1 °C 72 % 15 km/h (23 km/h) 0 mm0 mm 23.9 °C 23.9 °C 0 min 0 W/m²
05:54 21.5 °C 16 °C 71 % 14 km/h (21 km/h) 0 mm0 mm 23.9 °C 23.9 °C 0 min 0 W/m²
05:48 21.5 °C 16 °C 71 % 14 km/h (20 km/h) 0 mm0 mm 23.9 °C 23.9 °C 0 min 0 W/m²
05:42 21.6 °C 15.9 °C 70 % 15 km/h (24 km/h) 0 mm0 mm 23.9 °C 23.9 °C 0 min 0 W/m²
05:36 21.6 °C 15.9 °C 70 % 15 km/h (24 km/h) 0 mm0 mm 24 °C 23.9 °C 0 min 0 W/m²
05:30 21.6 °C 15.9 °C 70 % 14 km/h (21 km/h) 0 mm0 mm 24 °C 23.9 °C 0 min 0 W/m²
05:24 21.8 °C 16.1 °C 70 % 16 km/h (24 km/h) 0 mm0 mm 24 °C 23.9 °C 0 min 0 W/m²
05:18 22 °C 16 °C 69 % 17 km/h (24 km/h) 0 mm0 mm 24 °C 23.9 °C 0 min 0 W/m²
05:12 22 °C 16 °C 69 % 16 km/h (26 km/h) 0 mm0 mm 24 °C 23.9 °C 0 min 0 W/m²
05:06 21.9 °C 16 °C 69 % 17 km/h (27 km/h) 0 mm0 mm 24 °C 23.9 °C 0 min 0 W/m²
05:00 21.9 °C 16.2 °C 70 % 18 km/h (27 km/h) 0 mm0 mm 24 °C 23.9 °C 0 min 0 W/m²
04:54 21.7 °C 16 °C 70 % 17 km/h (29 km/h) 0 mm0 mm 24 °C 23.9 °C 0 min 0 W/m²
04:48 21.9 °C 16 °C 69 % 18 km/h (29 km/h) 0 mm0 mm 24 °C 23.9 °C 0 min 0 W/m²
04:42 21.8 °C 15.9 °C 69 % 14 km/h (22 km/h) 0 mm0 mm 24 °C 23.9 °C 0 min 0 W/m²
04:36 21.9 °C 16 °C 69 % 13 km/h (21 km/h) 0 mm0 mm 24.1 °C 23.9 °C 0 min 0 W/m²
04:30 22.3 °C 15.9 °C 67 % 17 km/h (26 km/h) 0 mm0 mm 24.1 °C 23.9 °C 0 min 0 W/m²
04:24 22.5 °C 15.8 °C 66 % 18 km/h (26 km/h) 0 mm0 mm 24.1 °C 23.9 °C 0 min 0 W/m²
04:18 22.6 °C 15.9 °C 66 % 17 km/h (28 km/h) 0 mm0 mm 24.1 °C 23.9 °C 0 min 0 W/m²
04:12 23.1 °C 16.2 °C 65 % 19 km/h (28 km/h) 0 mm0 mm 24.1 °C 23.9 °C 0 min 0 W/m²
04:06 23.2 °C 16 °C 64 % 19 km/h (28 km/h) 0 mm0 mm 24.1 °C 23.9 °C 0 min 0 W/m²
04:00 23.2 °C 16 °C 64 % 18 km/h (28 km/h) 0 mm0 mm 24.1 °C 23.9 °C 0 min 0 W/m²
03:54 23.3 °C 15.9 °C 63 % 19 km/h (27 km/h) 0 mm0 mm 24.1 °C 24 °C 0 min 0 W/m²
03:48 23.5 °C 16 °C 63 % 18 km/h (27 km/h) 0 mm0 mm 24.1 °C 24 °C 0 min 0 W/m²
03:42 23.5 °C 16 °C 63 % 19 km/h (28 km/h) 0 mm0 mm 24.2 °C 24 °C 0 min 0 W/m²
03:36 23.6 °C 15.9 °C 62 % 21 km/h (28 km/h) 0 mm0 mm 24.2 °C 24 °C 0 min 0 W/m²
03:30 23.6 °C 15.9 °C 62 % 20 km/h (28 km/h) 0 mm0 mm 24.2 °C 24 °C 0 min 0 W/m²
03:24 23.6 °C 15.9 °C 62 % 21 km/h (28 km/h) 0 mm0 mm 24.2 °C 24 °C 0 min 0 W/m²
03:18 23.6 °C 15.9 °C 62 % 18 km/h (28 km/h) 0 mm0 mm 24.2 °C 24 °C 0 min 0 W/m²
03:12 23.6 °C 15.9 °C 62 % 18 km/h (26 km/h) 0 mm0 mm 24.2 °C 24 °C 0 min 0 W/m²
03:06 23.6 °C 15.9 °C 62 % 17 km/h (24 km/h) 0 mm0 mm 24.2 °C 24 °C 0 min 0 W/m²
03:00 23.5 °C 15.8 °C 62 % 15 km/h (28 km/h) 0 mm0 mm 24.2 °C 24 °C 0 min 0 W/m²
02:54 23.5 °C 15.8 °C 62 % 14 km/h (21 km/h) 0 mm0 mm 24.2 °C 24 °C 0 min 0 W/m²
02:48 23.6 °C 15.9 °C 62 % 13 km/h (21 km/h) 0 mm0 mm 24.2 °C 24 °C 0 min 0 W/m²
02:42 23.5 °C 15.8 °C 62 % 14 km/h (22 km/h) 0 mm0 mm 24.3 °C 24 °C 0 min 0 W/m²
02:36 23.4 °C 15.7 °C 62 % 14 km/h (22 km/h) 0 mm0 mm 24.3 °C 24 °C 0 min 0 W/m²
02:30 23.4 °C 15.7 °C 62 % 14 km/h (20 km/h) 0 mm0 mm 24.3 °C 24 °C 0 min 0 W/m²
02:24 23.3 °C 15.6 °C 62 % 13 km/h (20 km/h) 0 mm0 mm 24.3 °C 24 °C 0 min 0 W/m²
02:18 23.3 °C 15.6 °C 62 % 12 km/h (20 km/h) 0 mm0 mm 24.3 °C 24 °C 0 min 0 W/m²
02:12 23.2 °C 15.5 °C 62 % 12 km/h (19 km/h) 0 mm0 mm 24.3 °C 24 °C 0 min 0 W/m²
02:06 23.4 °C 15.7 °C 62 % 13 km/h (21 km/h) 0 mm0 mm 24.3 °C 24 °C 0 min 0 W/m²
02:00 23.4 °C 15.4 °C 61 % 12 km/h (18 km/h) 0 mm0 mm 24.3 °C 24 °C 0 min 0 W/m²
01:54 23.3 °C 15.4 °C 61 % 11 km/h (15 km/h) 0 mm0 mm 24.3 °C 24 °C 0 min 0 W/m²
01:48 23.5 °C 15.5 °C 61 % 10 km/h (14 km/h) 0 mm0 mm 24.4 °C 24 °C 0 min 0 W/m²
01:42 23.6 °C 15.4 °C 60 % 10 km/h (13 km/h) 0 mm0 mm 24.4 °C 24 °C 0 min 0 W/m²
01:36 23.9 °C 15.4 °C 59 % 10 km/h (16 km/h) 0 mm0 mm 24.4 °C 24 °C 0 min 0 W/m²
01:30 24.1 °C 15.3 °C 58 % 12 km/h (20 km/h) 0 mm0 mm 24.4 °C 24 °C 0 min 0 W/m²
01:24 24.4 °C 15.6 °C 58 % 15 km/h (23 km/h) 0 mm0 mm 24.4 °C 24 °C 0 min 0 W/m²
01:18 24.6 °C 15.5 °C 57 % 17 km/h (23 km/h) 0 mm0 mm 24.4 °C 24 °C 0 min 0 W/m²
01:12 24.5 °C 15.4 °C 57 % 15 km/h (23 km/h) 0 mm0 mm 24.4 °C 24 °C 0 min 0 W/m²
01:06 24.5 °C 15.4 °C 57 % 15 km/h (20 km/h) 0 mm0 mm 24.4 °C 24 °C 0 min 0 W/m²
01:00 24.5 °C 15.4 °C 57 % 15 km/h (20 km/h) 0 mm0 mm 24.5 °C 24 °C 0 min 0 W/m²
00:54 24.7 °C 15.3 °C 56 % 14 km/h (21 km/h) 0 mm0 mm 24.5 °C 24 °C 0 min 0 W/m²
00:48 24.8 °C 15.4 °C 56 % 15 km/h (23 km/h) 0 mm0 mm 24.5 °C 24 °C 0 min 0 W/m²
00:42 24.8 °C 15.1 °C 55 % 15 km/h (22 km/h) 0 mm0 mm 24.5 °C 24 °C 0 min 0 W/m²
00:36 24.9 °C 15.2 °C 55 % 16 km/h (22 km/h) 0 mm0 mm 24.5 °C 24 °C 0 min 0 W/m²
00:30 24.9 °C 15 °C 54 % 14 km/h (21 km/h) 0 mm0 mm 24.5 °C 24 °C 0 min 0 W/m²
00:24 24.9 °C 15 °C 54 % 14 km/h (21 km/h) 0 mm0 mm 24.5 °C 24 °C 0 min 0 W/m²
00:18 25.1 °C 15.1 °C 54 % 15 km/h (21 km/h) 0 mm0 mm 24.5 °C 24 °C 0 min 0 W/m²
00:12 25.1 °C 14.8 °C 53 % 15 km/h (21 km/h) 0 mm0 mm 24.5 °C 24 °C 0 min 0 W/m²
00:06 25.2 °C 14.9 °C 53 % 15 km/h (22 km/h) 0 mm0 mm 24.5 °C 24 °C 0 min 0 W/m²
00:00 25.1 °C 14.8 °C 53 % 15 km/h (22 km/h) 0 mm0 mm 24.6 °C 24 °C 0 min 0 W/m²

Données via Météo-France

Relevés météo à Etoile

Cette page rassemble les observations de la station de Etoile : température, humidité, vent, précipitations et pression atmosphérique. Les graphiques facilitent le suivi de la journée, tandis que le tableau donne accès aux mesures horaires et infra-horaires disponibles.

Pour replacer ces mesures dans leur contexte, consultez la climatologie de Etoile ainsi que ses normales et records. Retrouvez aussi la carte des observations météo en temps réel.